User: anonymous   Login
Location: Unspecified
(0.0000°N, 0.0000°E)
Time: 23:04:14
(UTC+00:00)
Language:

UNISAT 6 - Orbit

View from above orbital plane
View from above orbital plane
View from above satellite
View from above satellite

Ground track
Ground track

The orbit data is extracted from the following two-line orbital elements,

1 40012U 14033C   20184.20212940 +.00000138 +00000-0 +27985-4 0  9990
2 40012 097.7098 038.3890 0057205 313.7608 045.8874 14.74124564324594
Epoch (UTC): 02 July 2020 04:51:03
Eccentricity: 0.0057205
inclination: 97.7098°
perigee height: 608 km
apogee height: 688 km
right ascension of ascending node: 38.3890°
argument of perigee: 313.7608°
revolutions per day: 14.74124564
mean anomaly at epoch: 45.8874°
orbit number at epoch: 32459

The dashed part of the orbit path shows where the satellite is in the earth's shadow,  

DLR